Location: Aniagüita
(10.0946°N, 66.9708°W)
Time: 03:01:32
(UTC+00:00)

ARIANE 5 R/B - Pass Details

Date: 08 December 2022
Orbit: 413 x 35410 km, 6.8° (Epoch: 07 February)

Event Time Altitude Azimuth Distance (km) Brightness Sun altitude
Rises 22:45:41 0° 263° (W) 3,103 6.9 -9.8°
Reaches altitude 10° 22:47:03 10° 261° (W) 2,535 6.2 -10.1°
Maximum altitude 22:52:28 75° 175° (S) 1,868 4.0 -11.3°
Drops below altitude 10° 08:27:32 10° 105° (ESE) 12,802 9.1 -29.7°
Sets 08:34:49 0° 103° (ESE) 11,888 9.3 -28.1°
